Terug naar catalogus

GORIZONT 18

ActiefCommunicatieGEO
NORAD 20107·PAYLOAD·🇷🇺 Russia

Gelanceerd Jul 5, 1989 vanaf Baikonur Cosmodrome

Loading…

TLE

VersSource: Space-Track

Epoch: Sep 14, 2026, 10:57 UTC

1 20107U 89052A   26257.45654963  .00000057  00000-0  00000-0 0  9990
2 20107  12.2971 333.8784 0036416 348.6556  49.8556  0.99400850135301

Volg GORIZONT 18 in realtime met AllMySat

Download on the App Store